Location: Jefferson
(30.9666°N, 81.7901°W)
Time: 19:56:08
(UTC+00:00)

ACS3 Solar Sail - Pass Details

Date: 19 September 2024
Orbit: 960 x 1036 km, 97.4° (Epoch: 09 October)

Event Time Altitude Azimuth Distance (km) Brightness Sun altitude
Rises 16:37:21 0° 331° (NNW) 3,753 4.6 58.8°
Enters shadow 17:30:35 -71° 138° (SE) 13,067 7.1 60.4°
Exits shadow 17:55:24 -44° 48° (NE) 10,207 6.5 59.4°
Maximum altitude 00:56:50 30° 70° (ENE) 1,755 2.7 -19.6°
